Salinas, CA

2:42 PM PDT on September 25, 2017 (GMT -0700)
Salinas Municipal

Weather History for KSNS - November, 2013

Change the Weather History Date:

Wednesday, November 20, 2013

  Actual Average Record
Temperature  
Mean Temperature 60 °F 55 °F  
Max Temperature 65 °F 66 °F 85 °F (2002)
Min Temperature 54 °F 44 °F 30 °F (1977)
Degree Days  
Heating Degree Days 5 10  
Month to date heating degree days 152 168  
Since 1 July heating degree days 439 502  
Cooling Degree Days 0 0  
Month to date cooling degree days 0 0  
Year to date cooling degree days 155 127  
Growing Degree Days 10 (Base 50)    
Moisture  
Dew Point 55 °F    
Average Humidity 87    
Maximum Humidity 100    
Minimum Humidity 73    
Precipitation  
Precipitation 0.35 in 0.05 in 1.76 in (1946)
Month to date precipitation 0.47 0.84  
Year to date precipitation 3.06 10.34  
Since 1 July precipitation 0.73  
Sea Level Pressure  
Sea Level Pressure 29.92 in    
Wind  
Wind Speed 9 mph (WSW)    
Max Wind Speed 16 mph    
Max Gust Speed 18 mph    
Visibility 8 miles    
Events Rain    
T = Trace of Precipitation, MM = Missing Value Source: NWS Daily Summary

Daily Weather History Graph

Daily Weather History Graph

Search for Another Location

Airport or City:

Trip Planner

Search our weather history database for the weather conditions in past years. The results will help you decide how hot, cold, wet, or windy it might be!

Date:

Astronomy

Nov. 20, 2013 Rise Set
Actual Time 6:49 AM PST 4:54 PM PST
Civil Twilight 6:21 AM PST 5:22 PM PST
Nautical Twilight 5:50 AM PST 5:53 PM PST
Astronomical Twilight 5:19 AM PST 6:24 PM PST
Moon 7:41 PM PST (11/20) 9:18 AM PST (11/20)
Length of Visible Light 11h 00m
Length of Day
10h 04m
Waning Gibbous, 91% of the Moon is Illuminated
Nov 20
Waning Gibbous
Nov 25
Last Quarter
Dec 2
New
Dec 9
First Quarter
Dec 17
Full

Hourly Weather History & Observations

Time (PST) Temp. Dew Point Humidity Pressure Visibility Wind Dir Wind Speed Gust Speed Precip Events Conditions
12:02 AM 55.4 °F 53.6 °F 94% 29.99 in 3.0 mi Calm Calm - 0.01 in Rain Light Rain
12:22 AM 55.4 °F 53.6 °F 94% 29.98 in 3.0 mi Calm Calm - 0.04 in Rain Rain
12:53 AM 55.9 °F 54.0 °F 93% 30.01 in 3.0 mi SSE 4.6 mph - 0.07 in Rain Rain
1:50 AM 55.4 °F 53.6 °F 94% 29.96 in 2.5 mi ESE 4.6 mph - 0.08 in Rain Heavy Rain
1:53 AM 55.0 °F 54.0 °F 96% 29.99 in 2.5 mi ESE 4.6 mph - 0.09 in Rain Heavy Rain
2:16 AM 55.4 °F 53.6 °F 94% 29.95 in 3.0 mi ESE 5.8 mph - 0.04 in Rain Light Rain
2:53 AM 55.9 °F 54.0 °F 93% 29.97 in 4.0 mi ESE 8.1 mph - 0.04 in Rain Light Rain
3:53 AM 55.9 °F 54.0 °F 93% 29.96 in 9.0 mi East 13.8 mph - 0.00 in   Overcast
4:53 AM 55.9 °F 53.1 °F 90% 29.95 in 10.0 mi East 13.8 mph - N/A   Mostly Cloudy
5:53 AM 55.9 °F 53.1 °F 90% 29.96 in 10.0 mi East 12.7 mph - N/A   Overcast
6:53 AM 55.0 °F 53.1 °F 93% 29.96 in 9.0 mi ESE 9.2 mph - N/A   Overcast
7:53 AM 55.9 °F 53.1 °F 90% 29.97 in 8.0 mi ESE 10.4 mph - N/A   Partly Cloudy
8:53 AM 57.9 °F 54.0 °F 87% 29.97 in 10.0 mi SE 9.2 mph - N/A   Mostly Cloudy
9:53 AM 60.1 °F 54.0 °F 80% 29.98 in 10.0 mi ESE 10.4 mph - N/A   Overcast
10:53 AM 62.1 °F 55.0 °F 78% 29.95 in 10.0 mi ESE 10.4 mph - N/A   Overcast
11:53 AM 64.9 °F 55.9 °F 73% 29.91 in 10.0 mi ESE 10.4 mph - N/A   Scattered Clouds
12:53 PM 62.1 °F 55.9 °F 80% 29.90 in 10.0 mi West 9.2 mph - N/A   Overcast
1:02 PM 62.6 °F 55.4 °F 77% 29.87 in 10.0 mi West 10.4 mph - N/A   Overcast
1:53 PM 62.1 °F 55.9 °F 80% 29.89 in 10.0 mi West 9.2 mph - N/A   Overcast
2:53 PM 62.1 °F 55.9 °F 80% 29.89 in 10.0 mi WNW 10.4 mph - N/A   Overcast
3:23 PM 60.8 °F 57.2 °F 88% 29.86 in 8.0 mi NW 10.4 mph - 0.00 in Rain Light Rain
3:35 PM 60.8 °F 57.2 °F 88% 29.86 in 1.8 mi NW 8.1 mph - 0.03 in Rain Rain
3:53 PM 60.1 °F 57.0 °F 90% 29.89 in 1.8 mi West 6.9 mph - 0.11 in Rain Rain
3:56 PM 60.8 °F 57.2 °F 88% 29.86 in 2.0 mi WNW 5.8 mph - 0.01 in Rain Rain
4:05 PM 60.8 °F 57.2 °F 88% 29.86 in 3.0 mi NW 4.6 mph - 0.02 in Rain Light Rain
4:53 PM 60.1 °F 57.0 °F 90% 29.89 in 10.0 mi NNW 3.5 mph - 0.04 in   Overcast
5:43 PM 59.0 °F 57.2 °F 94% 29.86 in 10.0 mi NNW 4.6 mph - N/A   Mostly Cloudy
5:53 PM 59.0 °F 57.0 °F 93% 29.89 in 10.0 mi NW 4.6 mph - N/A   Overcast
6:03 PM 59.0 °F 57.2 °F 94% 29.86 in 10.0 mi NW 5.8 mph - N/A   Overcast
6:11 PM 59.0 °F 57.2 °F 94% 29.86 in 10.0 mi NNW 5.8 mph - N/A   Overcast
6:53 PM 59.0 °F 55.9 °F 90% 29.90 in 10.0 mi NW 6.9 mph - N/A   Overcast
7:02 PM 59.0 °F 55.4 °F 88% 29.88 in 10.0 mi WNW 8.1 mph - N/A   Overcast
7:14 PM 57.2 °F 55.4 °F 94% 29.88 in 10.0 mi West 9.2 mph - N/A   Overcast
7:27 PM 57.2 °F 55.4 °F 94% 29.88 in 10.0 mi West 12.7 mph - N/A   Overcast
7:45 PM 57.2 °F 55.4 °F 94% 29.89 in 10.0 mi West 9.2 mph - N/A   Overcast
7:53 PM 57.0 °F 54.0 °F 89% 29.92 in 10.0 mi West 6.9 mph - N/A   Overcast
8:53 PM 55.9 °F 54.0 °F 93% 29.93 in 10.0 mi West 6.9 mph - N/A   Overcast
9:53 PM 55.9 °F 54.0 °F 93% 29.93 in 7.0 mi WSW 5.8 mph - N/A   Overcast
10:19 PM 55.4 °F 53.6 °F 94% 29.89 in 10.0 mi SW 8.1 mph - N/A   Mostly Cloudy
10:31 PM 55.4 °F 53.6 °F 94% 29.89 in 10.0 mi SW 9.2 mph - N/A   Mostly Cloudy
10:39 PM 55.4 °F 53.6 °F 94% 29.90 in 10.0 mi WSW 9.2 mph - N/A   Overcast
10:53 PM 55.0 °F 53.1 °F 93% 29.93 in 10.0 mi WSW 10.4 mph - N/A   Overcast
11:08 PM 55.4 °F 53.6 °F 94% 29.90 in 10.0 mi WSW 10.4 mph - N/A   Overcast
11:25 PM 55.4 °F 53.6 °F 94% 29.91 in 10.0 mi WSW 10.4 mph - N/A   Overcast
11:41 PM 55.4 °F 51.8 °F 88% 29.91 in 9.0 mi SW 9.2 mph - N/A   Overcast
11:53 PM 54.0 °F 52.0 °F 93% 29.94 in 10.0 mi SW 9.2 mph - N/A   Overcast